Location: Heppenheim
(49.6410°N, 8.6370°E)
Time: 17:00:04
(UTC+02:00)

ISS - Pass Details

Date: 15 May 2026
Orbit: 414 x 424 km, 51.6° (Epoch: 10 May)

Event Time Altitude Azimuth Distance (km) Brightness Sun altitude
Rises 00:08:45 0° 286° (WNW) 2,355 0.5 -19.7°
Reaches altitude 10° 00:10:51 10° 287° (WNW) 1,492 -0.5 -19.8°
Maximum altitude 00:14:12 84° 16° (NNE) 423 -3.8 -19.9°
Enters shadow 00:14:17 82° 59° (ENE) 425 -3.9 -19.9°
